Home > Weather > Denver > Past weeks

Flag for USA Weather for the Past 2 Weeks in Denver, Colorado, USA

Now
57 °F

Sunny.


Feels Like: 58 °F
Forecast: 41 / 72 °F
Wind: 3 mph from North

Location: Buckley Air Force Base

Current Time: May 3, 2016 at 8:59:48 PM

Latest Report: May 3, 2016 at 7:58 PM


Visibility: 10 mi

Pressure: 30.13 "Hg (24.93 "Hg at 1593m altitude)

Humidity: 39%

Dew Point: 32 °F

Location of DenverLocation

Historic Weather in Denver — Graph

°F

Denver Temperature Yesterday

Maximum temperature yesterday: 58 °F (at 4:58 PM)
Minimum temperature yesterday: 27 °F (at 5:58 AM)
Average temperature yesterday: 41 °F

High & Low Weather Summary for the Past Weeks

 TemperatureHumidityPressure
High76 °F (Apr 22, 3:58 PM)100% (Apr 19, 3:58 AM)30.37 "Hg (Apr 19, 3:58 AM)
Low27 °F (May 2, 5:58 AM)17% (Apr 22, 2:58 PM)29.40 "Hg (Apr 23, 4:58 PM)
Average44 °F69%29.93 "Hg
* Reported Apr 18 6:58 PM — May 3 6:58 PM, Denver, Weather by CustomWeather, © 2016

Note: Actual official high and low records may vary slightly from our data, if they occured in-between our weather recording intervals... More about our weather records

Advertising

Denver Weather History for the Previous 24 Hours

Scroll right to see more
 ConditionsComfort  
Time TempWeatherWind HumidityBarometerVisibility
6:58 PM
Tue, May 3
62 °FSunny.10 mph29%30.11 "Hg10 mi
5:58 PM64 °FSunny.9 mph25%30.11 "Hg10 mi
4:58 PM64 °FSunny.12 mph24%30.11 "Hg10 mi
3:58 PM65 °FSunny.12 mph26%30.10 "Hg10 mi
2:58 PM64 °FSunny.12 mph26%30.12 "Hg10 mi
2:00 PM63 °FSunny.16 mph32%30.24 "Hg10 mi
1:58 PM62 °FSunny.13 mph31%30.14 "Hg10 mi
12:58 PM60 °FPassing clouds.13 mph33%30.13 "Hg10 mi
11:58 AM59 °FPassing clouds.20 mph35%30.14 "Hg10 mi
10:58 AM58 °FScattered clouds.16 mph36%30.14 "Hg10 mi
9:58 AM56 °FPassing clouds.15 mph39%30.14 "Hg10 mi
8:58 AM52 °FSunny.14 mph44%30.12 "Hg10 mi
7:58 AM47 °FSunny.7 mph53%30.13 "Hg10 mi
6:58 AM39 °FSunny.6 mph73%30.21 "Hg10 mi
5:58 AM37 °FClear.7 mph71%30.11 "Hg10 mi
4:58 AM39 °FClear.7 mph67%30.09 "Hg10 mi
3:58 AM40 °FPassing clouds.3 mph62%30.08 "Hg10 mi
2:58 AM42 °FPassing clouds.2 mph55%30.07 "Hg10 mi
1:58 AM38 °FClear.3 mph66%30.10 "Hg10 mi
12:58 AM41 °FClear.6 mph58%30.10 "Hg10 mi
11:58 PM
Mon, May 2
42 °FPassing clouds.5 mph60%30.09 "Hg10 mi
10:58 PM42 °FClear.7 mph65%30.10 "Hg10 mi
9:58 PM46 °FClear.3 mph52%30.11 "Hg10 mi
8:58 PM50 °FClear.1 mph39%30.10 "Hg10 mi
Weather by CustomWeather, © 2016

See weather overviewHow to use our weather pages